Weather History for Billings, MT

Change the Weather History Date:

Monday, September 16, 2013

  Actual Average Record
Temperature  
Mean Temperature 69 °F 60 °F  
Max Temperature 83 °F 73 °F 94 °F (1979)
Min Temperature 55 °F 47 °F 29 °F (1965)
Degree Days  
Heating Degree Days 0 6  
Month to date heating degree days 2 66  
Since 1 July heating degree days 2 103  
Cooling Degree Days 4 1  
Month to date cooling degree days 101 40  
Year to date cooling degree days 838 622  
Growing Degree Days 18 (Base 50)    
Moisture  
Dew Point 54 °F    
Average Humidity 65    
Maximum Humidity 93    
Minimum Humidity 37    
Precipitation  
Precipitation 0.00 in 0.05 in 1.05 in (1959)
Month to date precipitation 2.94 0.66  
Year to date precipitation 11.12 10.71  
Snow  
Snow 0.00 in 0.00 in 1.30 in (1965)
Month to date snowfall T 0.3  
Since 1 July snowfall T 0.3  
Since 1 September snowfall T 0.3  
Snow Depth 0.00 in    
Sea Level Pressure  
Sea Level Pressure 29.83 in    
Wind  
Wind Speed 7 mph (WSW)    
Max Wind Speed 17 mph    
Max Gust Speed 20 mph    
Visibility 10 miles    
Events      
T = Trace of Precipitation, MM = Missing Value Source: NWS Daily Summary

Daily Weather History Graph

Daily Weather History Graph

Search for Another Location

Airport:

Trip Planner

Search our weather history database for the weather conditions in past years. The results will help you decide how hot, cold, wet, or windy it might be!

Date:

Astronomy

Sep. 16, 2013 Rise Set
Actual Time 6:54 AM MDT 7:22 PM MDT
Civil Twilight 6:24 AM MDT 7:52 PM MDT
Nautical Twilight 5:48 AM MDT 8:27 PM MDT
Astronomical Twilight 5:12 AM MDT 9:04 PM MDT
Moon 5:39 PM MDT (9/16) 3:36 AM MDT (9/16)
Length of Visible Light 13h 28m
Length of Day
12h 28m
Waxing Gibbous, 90% of the Moon is Illuminated
Sep 16
Waxing Gibbous
Sep 19
Full
Sep 26
Last Quarter
Oct 4
New
Oct 11
First Quarter

Hourly Weather History & Observations

Time (MDT) Temp. Heat Index Dew Point Humidity Pressure Visibility Wind Dir Wind Speed Gust Speed Precip Events Conditions
12:53 AM 62.1 °F - 54.0 °F 75% 29.93 in 10.0 mi ENE 4.6 mph - N/A   Clear
1:53 AM 57.0 °F - 54.0 °F 89% 29.93 in 10.0 mi NNW 4.6 mph - N/A   Clear
2:53 AM 57.9 °F - 53.1 °F 84% 29.91 in 10.0 mi NNW 4.6 mph - N/A   Clear
3:53 AM 60.1 °F - 52.0 °F 75% 29.90 in 10.0 mi Variable 3.5 mph - N/A   Clear
4:53 AM 60.1 °F - 52.0 °F 75% 29.90 in 10.0 mi Calm Calm - N/A   Clear
5:53 AM 55.9 °F - 53.1 °F 90% 29.91 in 10.0 mi SSW 5.8 mph - N/A   Partly Cloudy
6:53 AM 55.0 °F - 52.0 °F 89% 29.91 in 10.0 mi Calm Calm - N/A   Partly Cloudy
7:53 AM 59.0 °F - 53.1 °F 81% 29.90 in 10.0 mi SSE 3.5 mph - N/A   Partly Cloudy
8:53 AM 61.0 °F - 54.0 °F 78% 29.90 in 10.0 mi SSW 4.6 mph - N/A   Partly Cloudy
9:53 AM 64.0 °F - 54.0 °F 70% 29.89 in 10.0 mi SW 9.2 mph - N/A   Partly Cloudy
10:53 AM 69.1 °F - 55.9 °F 63% 29.87 in 10.0 mi South 9.2 mph - N/A   Partly Cloudy
11:53 AM 71.1 °F - 55.9 °F 59% 29.85 in 10.0 mi South 5.8 mph - N/A   Partly Cloudy
12:53 PM 75.9 °F - 57.0 °F 52% 29.83 in 10.0 mi SSW 9.2 mph - N/A   Clear
1:53 PM 81.0 °F 80.5 °F 54.0 °F 39% 29.80 in 10.0 mi WSW 13.8 mph - N/A   Partly Cloudy
2:53 PM 82.0 °F 81.3 °F 54.0 °F 38% 29.77 in 10.0 mi WSW 10.4 mph - N/A   Partly Cloudy
3:53 PM 82.9 °F 82.0 °F 55.0 °F 38% 29.74 in 10.0 mi WSW 12.7 mph - N/A   Partly Cloudy
4:53 PM 82.9 °F 82.0 °F 55.0 °F 38% 29.73 in 10.0 mi WSW 12.7 mph - N/A   Partly Cloudy
5:53 PM 82.0 °F 81.6 °F 55.9 °F 41% 29.73 in 10.0 mi WSW 9.2 mph - N/A   Scattered Clouds
6:53 PM 79.0 °F - 55.0 °F 44% 29.75 in 10.0 mi West 16.1 mph - N/A   Mostly Cloudy
7:53 PM 72.0 °F - 54.0 °F 53% 29.75 in 10.0 mi NW 5.8 mph - N/A   Scattered Clouds
8:53 PM 71.1 °F - 53.1 °F 53% 29.75 in 10.0 mi NNE 4.6 mph - N/A   Partly Cloudy
9:53 PM 66.9 °F - 52.0 °F 59% 29.75 in 10.0 mi SW 3.5 mph - N/A   Partly Cloudy
10:53 PM 66.9 °F - 54.0 °F 63% 29.76 in 10.0 mi NNW 5.8 mph - N/A   Partly Cloudy
11:53 PM 69.1 °F - 54.0 °F 58% 29.74 in 10.0 mi SE 9.2 mph - N/A   Partly Cloudy